Location: Marengo
(51.4813°N, 109.7825°W)
Time: 23:21:11
(UTC+00:00)

Envisat - Pass Details

Date: 30 January 2022
Orbit: 764 x 765 km, 98.2° (Epoch: 22 May)

Event Time Altitude Azimuth Distance (km) Brightness Sun altitude
Rises 13:26:54 0° 8° (N) 3,244 6.2 -14.5°
Reaches altitude 10° 13:29:24 10° 359° (N) 2,314 5.4 -14.1°
Maximum altitude 13:33:53 32° 297° (WNW) 1,291 3.7 -13.4°
Drops below altitude 10° 13:38:21 10° 236° (SW) 2,301 5.1 -12.8°
Sets 13:40:50 0° 226° (SW) 3,224 5.9 -12.4°
